Time,TemperatureF,DewpointF,PressureIn,WindDirection,WindDirectionDegrees,WindSpeedMPH,WindSpeedGustMPH,Humidity,HourlyPrecipIn,Conditions,Clouds,dailyrainin,SolarRadiationWatts/m^2,SoftwareType,DateUTC
2013-07-30 00:00:00,65.1,57.7,30.12,WNW,299,0.0,0.0,77,0.00,RA,,0.00,0.0,WeatherDisplay:10.37,2013-07-30 04:00:00,
2013-07-30 00:01:00,65.1,57.7,30.12,WNW,299,0.0,0.0,77,0.00,RA,,0.00,0.0,WeatherDisplay:10.37,2013-07-30 04:01:00,
2013-07-30 00:02:00,65.0,57.6,30.13,WNW,299,0.0,0.0,77,0.00,RA,,0.00,0.0,WeatherDisplay:10.37,2013-07-30 04:02:00,
2013-07-30 00:03:00,65.0,57.6,30.13,WNW,299,0.0,0.0,77,0.00,RA,,0.00,0.0,WeatherDisplay:10.37,2013-07-30 04:03:00,
2013-07-30 00:08:00,64.7,58.0,30.13,WNW,299,0.0,0.0,79,0.00,RA,,0.00,0.0,WeatherDisplay:10.37,2013-07-30 04:08:00,
2013-07-30 00:13:00,64.5,57.8,30.13,WNW,299,0.0,0.0,79,0.00,RA,,0.00,0.0,WeatherDisplay:10.37,2013-07-30 04:13:00,
2013-07-30 00:18:00,64.3,58.0,30.13,WNW,299,0.0,0.0,80,0.00,RA,,0.00,0.0,WeatherDisplay:10.37,2013-07-30 04:18:00,
2013-07-30 00:23:00,64.1,58.1,30.13,WNW,299,0.0,0.0,81,0.00,RA,,0.00,0.0,WeatherDisplay:10.37,2013-07-30 04:23:00,
2013-07-30 00:28:00,63.9,58.0,30.13,WNW,299,0.0,0.0,81,0.00,RA,,0.00,0.0,WeatherDisplay:10.37,2013-07-30 04:28:00,
2013-07-30 00:33:00,63.8,58.2,30.13,WNW,299,0.0,0.0,82,0.00,RA,,0.00,0.0,WeatherDisplay:10.37,2013-07-30 04:33:00,
2013-07-30 00:38:00,63.6,58.3,30.13,WNW,299,0.0,0.0,83,0.00,RA,,0.00,0.0,WeatherDisplay:10.37,2013-07-30 04:38:00,
2013-07-30 00:43:00,63.4,58.1,30.12,WNW,299,0.0,0.0,83,0.00,RA,,0.00,0.0,WeatherDisplay:10.37,2013-07-30 04:43:00,
2013-07-30 00:48:00,63.2,57.9,30.13,WNW,299,0.0,0.0,83,0.00,RA,,0.00,0.0,WeatherDisplay:10.37,2013-07-30 04:48:00,
2013-07-30 00:53:00,63.0,57.8,30.12,WNW,299,0.0,0.0,83,0.00,RA,,0.00,0.0,WeatherDisplay:10.37,2013-07-30 04:53:00,
2013-07-30 00:58:00,62.9,58.0,30.12,WNW,299,0.0,0.0,84,0.00,RA,,0.00,0.0,WeatherDisplay:10.37,2013-07-30 04:58:00,
2013-07-30 01:03:00,62.9,58.0,30.13,WNW,299,0.0,0.0,84,0.00,CLR,,0.00,0.0,WeatherDisplay:10.37,2013-07-30 05:03:00,
2013-07-30 01:08:00,62.8,57.9,30.13,WNW,299,0.0,0.0,84,0.00,CLR,,0.00,0.0,WeatherDisplay:10.37,2013-07-30 05:08:00,
2013-07-30 01:13:00,62.8,57.9,30.13,WNW,299,0.0,0.0,84,0.00,CLR,,0.00,0.0,WeatherDisplay:10.37,2013-07-30 05:13:00,
2013-07-30 01:18:00,62.7,57.5,30.13,WNW,299,0.0,0.0,83,0.00,CLR,,0.00,0.0,WeatherDisplay:10.37,2013-07-30 05:18:00,
2013-07-30 01:23:00,62.6,57.4,30.13,WNW,298,0.0,0.0,83,0.00,CLR,,0.00,0.0,WeatherDisplay:10.37,2013-07-30 05:23:00,
2013-07-30 01:28:00,62.6,57.7,30.13,WNW,298,0.0,0.0,84,0.00,CLR,,0.00,0.0,WeatherDisplay:10.37,2013-07-30 05:28:00,
2013-07-30 01:33:00,62.5,57.6,30.13,WNW,298,0.0,0.0,84,0.00,CLR,,0.00,0.0,WeatherDisplay:10.37,2013-07-30 05:33:00,
2013-07-30 01:38:00,62.3,57.4,30.13,WNW,298,0.0,0.0,84,0.00,CLR,,0.00,0.0,WeatherDisplay:10.37,2013-07-30 05:38:00,
2013-07-30 01:43:00,62.2,57.3,30.13,WNW,298,0.0,0.0,84,0.00,CLR,,0.00,0.0,WeatherDisplay:10.37,2013-07-30 05:43:00,
2013-07-30 01:48:00,62.0,57.1,30.13,WNW,298,0.0,0.0,84,0.00,CLR,,0.00,0.0,WeatherDisplay:10.37,2013-07-30 05:48:00,
2013-07-30 01:53:00,61.9,57.7,30.13,WNW,298,0.0,0.0,86,0.00,CLR,,0.00,0.0,WeatherDisplay:10.37,2013-07-30 05:53:00,
2013-07-30 01:58:00,61.8,57.6,30.13,WNW,298,0.0,0.0,86,0.00,CLR,,0.00,0.0,WeatherDisplay:10.37,2013-07-30 05:58:00,
2013-07-30 02:03:00,61.8,57.6,30.13,WNW,298,0.0,0.0,86,0.00,CLR,,0.00,0.0,WeatherDisplay:10.37,2013-07-30 06:03:00,
2013-07-30 02:08:00,61.6,57.4,30.13,WNW,298,0.0,0.0,86,0.00,CLR,,0.00,0.0,WeatherDisplay:10.37,2013-07-30 06:08:00,
2013-07-30 02:13:00,61.4,57.5,30.13,WNW,298,0.0,0.0,87,0.00,CLR,,0.00,0.0,WeatherDisplay:10.37,2013-07-30 06:13:00,
2013-07-30 02:18:00,61.3,57.4,30.13,WNW,298,0.0,0.0,87,0.00,CLR,,0.00,0.0,WeatherDisplay:10.37,2013-07-30 06:18:00,
2013-07-30 02:23:00,61.2,57.3,30.13,WNW,298,0.0,0.0,87,0.00,CLR,,0.00,0.0,WeatherDisplay:10.37,2013-07-30 06:23:00,
2013-07-30 02:28:00,61.2,57.6,30.13,South,187,0.0,0.0,88,0.00,CLR,,0.00,0.0,WeatherDisplay:10.37,2013-07-30 06:28:00,
2013-07-30 02:33:00,61.3,57.7,30.13,South,187,1.2,0.0,88,0.00,CLR,,0.00,0.0,WeatherDisplay:10.37,2013-07-30 06:33:00,
2013-07-30 02:38:00,61.4,57.8,30.13,South,187,0.0,0.0,88,0.00,CLR,,0.00,0.0,WeatherDisplay:10.37,2013-07-30 06:38:00,
2013-07-30 02:43:00,61.4,57.8,30.13,South,187,0.0,0.0,88,0.00,CLR,,0.00,0.0,WeatherDisplay:10.37,2013-07-30 06:43:00,
2013-07-30 02:48:00,61.4,57.8,30.13,South,187,0.0,0.0,88,0.00,CLR,,0.00,0.0,WeatherDisplay:10.37,2013-07-30 06:48:00,
2013-07-30 02:53:00,61.4,57.8,30.13,South,187,0.0,0.0,88,0.00,CLR,,0.00,0.0,WeatherDisplay:10.37,2013-07-30 06:53:00,
2013-07-30 02:58:00,61.3,57.7,30.13,South,187,0.0,0.0,88,0.00,CLR,,0.00,0.0,WeatherDisplay:10.37,2013-07-30 06:58:00,
2013-07-30 03:03:00,61.3,58.0,30.13,South,187,2.3,2.3,89,0.00,CLR,,0.00,0.0,WeatherDisplay:10.37,2013-07-30 07:03:00,
2013-07-30 03:08:00,61.3,58.0,30.13,South,187,0.0,0.0,89,0.00,CLR,,0.00,0.0,WeatherDisplay:10.37,2013-07-30 07:08:00,
2013-07-30 03:13:00,61.2,57.9,30.13,South,187,0.0,0.0,89,0.00,CLR,,0.00,0.0,WeatherDisplay:10.37,2013-07-30 07:13:00,
2013-07-30 03:18:00,61.2,57.9,30.13,South,187,0.0,0.0,89,0.00,CLR,,0.00,0.0,WeatherDisplay:10.37,2013-07-30 07:18:00,
2013-07-30 03:23:00,61.1,57.8,30.13,South,187,0.0,0.0,89,0.00,CLR,,0.00,0.0,WeatherDisplay:10.37,2013-07-30 07:23:00,
2013-07-30 03:28:00,61.0,57.7,30.13,South,187,0.0,0.0,89,0.00,CLR,,0.00,0.0,WeatherDisplay:10.37,2013-07-30 07:28:00,
2013-07-30 03:33:00,60.9,57.6,30.13,South,187,0.0,0.0,89,0.00,CLR,,0.00,0.0,WeatherDisplay:10.37,2013-07-30 07:33:00,
2013-07-30 03:38:00,60.8,57.5,30.13,South,187,0.0,0.0,89,0.00,CLR,,0.00,0.0,WeatherDisplay:10.37,2013-07-30 07:38:00,
2013-07-30 03:43:00,60.6,57.3,30.13,South,187,0.0,0.0,89,0.00,CLR,,0.00,0.0,WeatherDisplay:10.37,2013-07-30 07:43:00,
2013-07-30 03:48:00,60.4,57.5,30.13,South,187,0.0,0.0,90,0.00,CLR,,0.00,0.0,WeatherDisplay:10.37,2013-07-30 07:48:00,
2013-07-30 03:53:00,60.3,57.7,30.13,SSW,199,1.2,1.2,91,0.00,CLR,,0.00,0.0,WeatherDisplay:10.37,2013-07-30 07:53:00,
2013-07-30 03:58:00,60.2,57.3,30.13,SSW,199,0.0,0.0,90,0.00,CLR,,0.00,0.0,WeatherDisplay:10.37,2013-07-30 07:58:00,
2013-07-30 04:03:00,60.2,57.3,30.13,SSW,199,0.0,0.0,90,0.00,CLR,,0.00,0.0,WeatherDisplay:10.37,2013-07-30 08:03:00,
2013-07-30 04:08:00,60.2,57.3,30.13,SSW,198,1.2,1.2,90,0.00,CLR,,0.00,0.0,WeatherDisplay:10.37,2013-07-30 08:08:00,
2013-07-30 04:13:00,60.2,57.3,30.13,SSW,198,0.0,0.0,90,0.00,CLR,,0.00,0.0,WeatherDisplay:10.37,2013-07-30 08:13:00,
2013-07-30 04:18:00,60.2,57.3,30.13,SSW,198,2.3,2.3,90,0.00,CLR,,0.00,0.0,WeatherDisplay:10.37,2013-07-30 08:18:00,
2013-07-30 04:23:00,60.3,57.4,30.13,SSW,198,1.2,0.0,90,0.00,CLR,,0.00,0.0,WeatherDisplay:10.37,2013-07-30 08:23:00,
2013-07-30 04:28:00,60.2,57.3,30.13,SSW,198,0.0,0.0,90,0.00,CLR,,0.00,0.0,WeatherDisplay:10.37,2013-07-30 08:28:00,
2013-07-30 04:33:00,60.1,57.2,30.14,SSW,198,0.0,0.0,90,0.00,CLR,,0.00,0.0,WeatherDisplay:10.37,2013-07-30 08:33:00,
2013-07-30 04:38:00,59.9,57.0,30.14,SSW,198,0.0,0.1,90,0.00,CLR,,0.00,0.0,WeatherDisplay:10.37,2013-07-30 08:38:00,
2013-07-30 04:43:00,59.8,56.9,30.14,SW,219,2.3,2.3,90,0.00,CLR,,0.00,0.0,WeatherDisplay:10.37,2013-07-30 08:43:00,
2013-07-30 04:48:00,59.7,56.8,30.14,SW,219,0.0,0.0,90,0.00,CLR,,0.00,0.0,WeatherDisplay:10.37,2013-07-30 08:48:00,
2013-07-30 04:53:00,59.8,56.9,30.14,South,188,2.3,2.3,90,0.00,CLR,,0.00,0.0,WeatherDisplay:10.37,2013-07-30 08:53:00,
2013-07-30 04:58:00,59.8,56.9,30.14,South,188,1.2,0.0,90,0.00,CLR,,0.00,0.0,WeatherDisplay:10.37,2013-07-30 08:58:00,
2013-07-30 05:03:00,59.8,56.6,30.14,South,188,1.2,1.2,89,0.00,CLR,,0.00,0.0,WeatherDisplay:10.37,2013-07-30 09:03:00,
2013-07-30 05:08:00,59.7,56.5,30.14,South,188,1.2,0.0,89,0.00,CLR,,0.00,0.0,WeatherDisplay:10.37,2013-07-30 09:08:00,
2013-07-30 05:13:00,59.6,56.7,30.14,South,188,1.2,0.0,90,0.00,CLR,,0.00,0.0,WeatherDisplay:10.37,2013-07-30 09:13:00,
2013-07-30 05:18:00,59.7,56.8,30.15,South,188,1.2,0.0,90,0.00,CLR,,0.00,0.0,WeatherDisplay:10.37,2013-07-30 09:18:00,
2013-07-30 05:23:00,59.7,56.8,30.15,South,188,1.2,1.2,90,0.00,CLR,,0.00,0.0,WeatherDisplay:10.37,2013-07-30 09:23:00,
2013-07-30 05:28:00,59.6,56.7,30.15,South,188,1.2,0.0,90,0.00,CLR,,0.00,0.0,WeatherDisplay:10.37,2013-07-30 09:28:00,
2013-07-30 05:33:00,59.5,56.6,30.15,South,188,0.0,0.0,90,0.00,CLR,,0.00,0.0,WeatherDisplay:10.37,2013-07-30 09:33:00,
2013-07-30 05:38:00,59.3,56.4,30.16,South,188,0.0,0.0,90,0.00,CLR,,0.00,0.0,WeatherDisplay:10.37,2013-07-30 09:38:00,
2013-07-30 05:43:00,59.1,56.2,30.16,South,188,3.5,3.5,90,0.00,CLR,,0.00,0.0,WeatherDisplay:10.37,2013-07-30 09:43:00,
2013-07-30 05:48:00,59.1,56.5,30.16,South,188,0.0,0.0,91,0.00,CLR,,0.00,0.0,WeatherDisplay:10.37,2013-07-30 09:48:00,
2013-07-30 05:53:00,59.0,56.4,30.16,South,188,0.0,0.0,91,0.00,CLR,,0.00,0.0,WeatherDisplay:10.37,2013-07-30 09:53:00,
2013-07-30 05:58:00,59.0,56.4,30.16,South,188,0.0,0.0,91,0.00,CLR,,0.00,0.0,WeatherDisplay:10.37,2013-07-30 09:58:00,
2013-07-30 06:03:00,59.0,56.4,30.16,South,188,0.0,0.0,91,0.00,CLR,,0.00,0.0,WeatherDisplay:10.37,2013-07-30 10:03:00,
2013-07-30 06:08:00,59.0,56.4,30.16,South,188,0.0,0.0,91,0.00,CLR,,0.00,7.0,WeatherDisplay:10.37,2013-07-30 10:08:00,
2013-07-30 06:13:00,58.9,56.3,30.16,South,188,0.0,0.0,91,0.00,CLR,,0.00,11.0,WeatherDisplay:10.37,2013-07-30 10:13:00,
2013-07-30 06:18:00,59.0,56.4,30.16,South,188,0.0,0.0,91,0.00,CLR,,0.00,18.0,WeatherDisplay:10.37,2013-07-30 10:18:00,
2013-07-30 06:23:00,59.5,56.9,30.16,South,188,0.0,0.0,91,0.00,CLR,,0.00,28.0,WeatherDisplay:10.37,2013-07-30 10:23:00,
2013-07-30 06:28:00,60.0,57.1,30.16,South,188,0.0,0.0,90,0.00,CLR,,0.00,39.0,WeatherDisplay:10.37,2013-07-30 10:28:00,
2013-07-30 06:33:00,60.5,57.2,30.17,South,188,0.0,0.3,89,0.00,CLR,,0.00,47.0,WeatherDisplay:10.37,2013-07-30 10:33:00,
2013-07-30 06:39:00,61.0,57.4,30.17,South,188,0.0,0.0,88,0.00,CLR,,0.00,60.0,WeatherDisplay:10.37,2013-07-30 10:39:00,
2013-07-30 06:44:00,61.7,57.8,30.17,South,188,0.0,0.0,87,0.00,CLR,,0.00,72.0,WeatherDisplay:10.37,2013-07-30 10:44:00,
2013-07-30 06:49:00,62.0,57.8,30.17,South,188,0.0,0.0,86,0.00,CLR,,0.00,84.0,WeatherDisplay:10.37,2013-07-30 10:49:00,
2013-07-30 06:54:00,62.3,57.4,30.17,South,188,0.0,0.0,84,0.00,CLR,,0.00,97.0,WeatherDisplay:10.37,2013-07-30 10:54:00,
2013-07-30 06:59:00,62.5,57.6,30.17,South,188,0.0,0.0,84,0.00,SCT,,0.00,107.0,WeatherDisplay:10.37,2013-07-30 10:59:00,
2013-07-30 07:04:00,62.7,57.8,30.17,South,188,0.0,0.0,84,0.00,SCT,,0.00,118.0,WeatherDisplay:10.37,2013-07-30 11:04:00,
2013-07-30 07:09:00,63.0,57.8,30.18,South,188,0.0,0.0,83,0.00,SCT,,0.00,127.0,WeatherDisplay:10.37,2013-07-30 11:09:00,
2013-07-30 07:14:00,63.3,57.7,30.18,South,188,1.2,1.2,82,0.00,SCT,,0.00,135.0,WeatherDisplay:10.37,2013-07-30 11:14:00,
2013-07-30 07:19:00,63.6,58.0,30.18,South,188,2.3,2.3,82,0.00,SCT,,0.00,148.0,WeatherDisplay:10.37,2013-07-30 11:19:00,
2013-07-30 07:24:00,63.8,58.5,30.19,South,188,2.3,2.3,83,0.00,SCT,,0.00,156.0,WeatherDisplay:10.37,2013-07-30 11:24:00,
2013-07-30 07:29:00,63.9,59.3,30.19,South,188,2.3,2.3,85,0.00,SCT,,0.00,169.0,WeatherDisplay:10.37,2013-07-30 11:29:00,
2013-07-30 07:34:00,63.8,59.2,30.19,South,189,3.5,3.5,85,0.00,SCT,,0.00,179.0,WeatherDisplay:10.37,2013-07-30 11:34:00,
2013-07-30 07:39:00,63.7,59.4,30.19,South,189,2.3,2.3,86,0.00,SCT,,0.00,200.0,WeatherDisplay:10.37,2013-07-30 11:39:00,
2013-07-30 07:44:00,63.9,59.6,30.19,SSW,192,2.3,2.3,86,0.00,SCT,,0.00,211.0,WeatherDisplay:10.37,2013-07-30 11:44:00,
2013-07-30 07:49:00,64.1,59.5,30.19,SSW,192,3.5,3.5,85,0.00,SCT,,0.00,218.0,WeatherDisplay:10.37,2013-07-30 11:49:00,
2013-07-30 07:54:00,64.5,59.9,30.19,South,189,3.5,3.5,85,0.00,SCT,,0.00,221.0,WeatherDisplay:10.37,2013-07-30 11:54:00,
2013-07-30 07:59:00,64.7,59.4,30.19,South,190,3.5,3.5,83,0.00,CLR,,0.00,227.0,WeatherDisplay:10.37,2013-07-30 11:59:00,
2013-07-30 08:04:00,64.8,59.5,30.19,SSW,202,2.3,2.3,83,0.00,CLR,,0.00,234.0,WeatherDisplay:10.37,2013-07-30 12:04:00,
2013-07-30 08:09:00,64.9,59.6,30.19,South,191,3.5,3.5,83,0.00,CLR,,0.00,246.0,WeatherDisplay:10.37,2013-07-30 12:09:00,
2013-07-30 08:14:00,65.3,60.0,30.19,SSW,196,3.5,3.5,83,0.00,CLR,,0.00,267.0,WeatherDisplay:10.37,2013-07-30 12:14:00,
2013-07-30 08:19:00,65.6,60.6,30.19,SSW,196,3.5,3.5,84,0.00,CLR,,0.00,297.0,WeatherDisplay:10.37,2013-07-30 12:19:00,
2013-07-30 08:24:00,65.9,60.9,30.20,SSW,207,3.5,3.5,84,0.00,CLR,,0.00,315.0,WeatherDisplay:10.37,2013-07-30 12:24:00,
2013-07-30 08:29:00,66.3,61.3,30.20,South,184,3.5,3.5,84,0.00,CLR,,0.00,313.0,WeatherDisplay:10.37,2013-07-30 12:29:00,
2013-07-30 08:34:00,66.6,60.9,30.20,South,170,3.5,3.5,82,0.00,CLR,,0.00,304.0,WeatherDisplay:10.37,2013-07-30 12:34:00,
2013-07-30 08:39:00,67.0,61.0,30.20,SSW,196,3.5,3.5,81,0.00,CLR,,0.00,329.0,WeatherDisplay:10.37,2013-07-30 12:39:00,
2013-07-30 08:44:00,67.4,61.0,30.20,SSW,209,3.5,3.5,80,0.00,CLR,,0.00,374.0,WeatherDisplay:10.37,2013-07-30 12:44:00,
2013-07-30 08:49:00,67.6,60.9,30.20,SSW,196,2.3,2.3,79,0.00,CLR,,0.00,401.0,WeatherDisplay:10.37,2013-07-30 12:49:00,
2013-07-30 08:54:00,68.1,61.0,30.20,South,190,4.6,4.6,78,0.00,CLR,,0.00,408.0,WeatherDisplay:10.37,2013-07-30 12:54:00,
2013-07-30 08:59:00,68.6,61.5,30.20,SSW,197,3.5,3.5,78,0.00,CLR,,0.00,417.0,WeatherDisplay:10.37,2013-07-30 12:59:00,
2013-07-30 09:04:00,69.0,61.9,30.20,SSW,211,3.5,3.5,78,0.00,CLR,,0.00,418.0,WeatherDisplay:10.37,2013-07-30 13:04:00,
2013-07-30 09:09:00,69.2,61.3,30.20,SSW,200,3.5,3.5,76,0.00,CLR,,0.00,424.0,WeatherDisplay:10.37,2013-07-30 13:09:00,
2013-07-30 09:14:00,69.4,61.5,30.20,SSW,205,3.5,3.5,76,0.00,CLR,,0.00,427.0,WeatherDisplay:10.37,2013-07-30 13:14:00,
2013-07-30 09:19:00,69.7,61.0,30.20,SSW,194,3.5,3.5,74,0.00,CLR,,0.00,432.0,WeatherDisplay:10.37,2013-07-30 13:19:00,
2013-07-30 09:24:00,70.2,61.5,30.20,SW,219,3.5,3.5,74,0.00,CLR,,0.00,436.0,WeatherDisplay:10.37,2013-07-30 13:24:00,
2013-07-30 09:29:00,70.4,59.3,30.20,WNW,303,8.1,8.1,68,0.00,CLR,,0.00,445.0,WeatherDisplay:10.37,2013-07-30 13:29:00,
2013-07-30 09:34:00,70.4,59.7,30.19,WNW,287,3.5,3.5,69,0.00,CLR,,0.00,452.0,WeatherDisplay:10.37,2013-07-30 13:34:00,
2013-07-30 09:39:00,70.5,59.8,30.19,WNW,282,3.5,3.5,69,0.00,CLR,,0.00,459.0,WeatherDisplay:10.37,2013-07-30 13:39:00,
2013-07-30 09:44:00,70.6,59.5,30.19,NW,316,6.9,6.9,68,0.00,CLR,,0.00,473.0,WeatherDisplay:10.37,2013-07-30 13:44:00,
2013-07-30 09:49:00,70.6,60.3,30.19,WNW,302,8.1,8.1,70,0.00,CLR,,0.00,483.0,WeatherDisplay:10.37,2013-07-30 13:49:00,
2013-07-30 09:54:00,70.9,60.6,30.19,NW,308,8.1,8.1,70,0.00,CLR,,0.00,508.0,WeatherDisplay:10.37,2013-07-30 13:54:00,
2013-07-30 09:59:00,71.2,61.7,30.19,NW,305,4.6,4.6,72,0.00,CLR,,0.00,526.0,WeatherDisplay:10.37,2013-07-30 13:59:00,
2013-07-30 10:04:00,71.6,60.5,30.19,NW,306,9.2,9.2,68,0.00,CLR,,0.00,547.0,WeatherDisplay:10.37,2013-07-30 14:04:00,
2013-07-30 10:09:00,71.8,60.7,30.19,NNW,331,6.9,6.9,68,0.00,CLR,,0.00,577.0,WeatherDisplay:10.37,2013-07-30 14:09:00,
2013-07-30 10:14:00,72.2,61.0,30.19,NW,310,6.0,6.0,68,0.00,CLR,,0.00,599.0,WeatherDisplay:10.37,2013-07-30 14:14:00,
2013-07-30 10:19:00,72.1,59.7,30.19,WNW,293,4.6,4.6,65,0.00,CLR,,0.00,622.0,WeatherDisplay:10.37,2013-07-30 14:19:00,
2013-07-30 10:24:00,72.3,61.1,30.19,WNW,286,6.9,6.9,68,0.00,CLR,,0.00,650.0,WeatherDisplay:10.37,2013-07-30 14:24:00,
2013-07-30 10:29:00,72.8,62.0,30.19,WNW,303,6.0,6.0,69,0.00,CLR,,0.00,670.0,WeatherDisplay:10.37,2013-07-30 14:29:00,
2013-07-30 10:34:00,73.6,62.0,30.19,NW,310,6.9,6.9,67,0.00,CLR,,0.00,691.0,WeatherDisplay:10.37,2013-07-30 14:34:00,
2013-07-30 10:39:00,73.2,61.6,30.19,NW,312,9.2,9.2,67,0.00,CLR,,0.00,715.0,WeatherDisplay:10.37,2013-07-30 14:39:00,
2013-07-30 10:44:00,73.4,60.5,30.19,WNW,302,9.2,9.2,64,0.00,CLR,,0.00,722.0,WeatherDisplay:10.37,2013-07-30 14:44:00,
2013-07-30 10:49:00,73.1,60.2,30.19,NW,315,6.0,6.0,64,0.00,CLR,,0.00,717.0,WeatherDisplay:10.37,2013-07-30 14:49:00,
2013-07-30 10:54:00,73.1,61.1,30.19,West,276,5.8,5.8,66,0.00,CLR,,0.00,742.0,WeatherDisplay:10.37,2013-07-30 14:54:00,
2013-07-30 10:59:00,74.0,61.0,30.19,WNW,284,6.9,6.9,64,0.00,CLR,,0.00,751.0,WeatherDisplay:10.37,2013-07-30 14:59:00,
2013-07-30 11:04:00,74.4,61.9,30.19,NW,315,8.1,8.1,65,0.00,CLR,,0.00,761.0,WeatherDisplay:10.37,2013-07-30 15:04:00,
2013-07-30 11:09:00,74.9,61.0,30.19,NNW,336,4.6,4.6,62,0.00,CLR,,0.00,775.0,WeatherDisplay:10.37,2013-07-30 15:09:00,
2013-07-30 11:14:00,75.2,60.8,30.19,WNW,290,5.8,5.8,61,0.00,CLR,,0.00,773.0,WeatherDisplay:10.37,2013-07-30 15:14:00,
2013-07-30 11:19:00,75.4,61.5,30.18,West,267,4.6,4.6,62,0.00,CLR,,0.00,791.0,WeatherDisplay:10.37,2013-07-30 15:19:00,
2013-07-30 11:24:00,75.0,59.7,30.19,NW,315,9.2,9.2,59,0.00,CLR,,0.00,800.0,WeatherDisplay:10.37,2013-07-30 15:24:00,
2013-07-30 11:29:00,74.8,61.8,30.19,West,263,5.8,5.8,64,0.00,CLR,,0.00,816.0,WeatherDisplay:10.37,2013-07-30 15:29:00,
2013-07-30 11:34:00,75.7,60.4,30.18,WNW,300,5.8,5.8,59,0.00,CLR,,0.00,831.0,WeatherDisplay:10.37,2013-07-30 15:34:00,
2013-07-30 11:39:00,76.1,61.2,30.18,WNW,283,5.8,5.8,60,0.00,CLR,,0.00,853.0,WeatherDisplay:10.37,2013-07-30 15:39:00,
2013-07-30 11:44:00,75.4,59.6,30.18,West,269,6.9,6.9,58,0.00,CLR,,0.00,847.0,WeatherDisplay:10.37,2013-07-30 15:44:00,
2013-07-30 11:49:00,75.6,60.7,30.18,West,280,6.9,6.9,60,0.00,CLR,,0.00,851.0,WeatherDisplay:10.37,2013-07-30 15:49:00,
2013-07-30 11:54:00,76.2,61.3,30.18,WNW,300,11.5,11.5,60,0.00,CLR,,0.00,865.0,WeatherDisplay:10.37,2013-07-30 15:54:00,
2013-07-30 11:59:00,75.3,60.5,30.18,NW,313,7.0,7.0,60,0.00,FEW,,0.00,874.0,WeatherDisplay:10.37,2013-07-30 15:59:00,
2013-07-30 12:04:00,75.9,60.1,30.18,NW,311,6.9,6.9,58,0.00,FEW,,0.00,886.0,WeatherDisplay:10.37,2013-07-30 16:04:00,
2013-07-30 12:09:00,76.2,60.3,30.18,WNW,284,6.9,6.9,58,0.00,FEW,,0.00,965.0,WeatherDisplay:10.37,2013-07-30 16:09:00,
2013-07-30 12:14:00,76.1,60.2,30.17,WNW,288,5.0,5.0,58,0.00,FEW,,0.00,893.0,WeatherDisplay:10.37,2013-07-30 16:14:00,
2013-07-30 12:19:00,76.0,59.7,30.18,NW,315,6.9,6.9,57,0.00,FEW,,0.00,991.0,WeatherDisplay:10.37,2013-07-30 16:19:00,
2013-07-30 12:24:00,77.0,59.6,30.17,NW,314,6.9,6.9,55,0.00,FEW,,0.00,965.0,WeatherDisplay:10.37,2013-07-30 16:24:00,
2013-07-30 12:29:00,76.2,59.9,30.18,West,274,10.4,10.4,57,0.00,FEW,,0.00,981.0,WeatherDisplay:10.37,2013-07-30 16:29:00,
2013-07-30 12:34:00,76.9,61.0,30.17,NW,306,8.1,8.1,58,0.00,FEW,,0.00,1002.0,WeatherDisplay:10.37,2013-07-30 16:34:00,
2013-07-30 12:39:00,77.6,59.6,30.17,WNW,293,10.4,10.4,54,0.00,FEW,,0.00,1046.0,WeatherDisplay:10.37,2013-07-30 16:39:00,
2013-07-30 12:44:00,76.4,59.5,30.17,WSW,237,10.4,10.4,56,0.00,FEW,,0.00,1039.0,WeatherDisplay:10.37,2013-07-30 16:44:00,
2013-07-30 12:49:00,77.8,61.8,30.17,West,273,10.4,10.4,58,0.00,FEW,,0.00,993.0,WeatherDisplay:10.37,2013-07-30 16:49:00,
2013-07-30 12:54:00,77.3,60.9,30.17,WNW,303,6.9,6.9,57,0.00,FEW,,0.00,1053.0,WeatherDisplay:10.37,2013-07-30 16:54:00,
2013-07-30 12:59:00,76.2,59.9,30.17,West,273,6.9,6.9,57,0.00,SCT,,0.00,225.0,WeatherDisplay:10.37,2013-07-30 16:59:00,
2013-07-30 13:04:00,76.0,60.2,30.17,WNW,294,11.5,11.5,58,0.00,SCT,,0.00,993.0,WeatherDisplay:10.37,2013-07-30 17:04:00,
2013-07-30 13:09:00,75.4,59.1,30.17,West,263,5.8,5.8,57,0.00,SCT,,0.00,197.0,WeatherDisplay:10.37,2013-07-30 17:09:00,
2013-07-30 13:14:00,76.2,59.9,30.17,NNW,329,9.2,9.2,57,0.00,SCT,,0.00,1085.0,WeatherDisplay:10.37,2013-07-30 17:14:00,
2013-07-30 13:19:00,76.8,61.4,30.17,WNW,285,9.0,9.0,59,0.00,SCT,,0.00,965.0,WeatherDisplay:10.37,2013-07-30 17:19:00,
2013-07-30 13:24:00,77.0,61.1,30.17,WSW,257,8.1,8.1,58,0.00,SCT,,0.00,986.0,WeatherDisplay:10.37,2013-07-30 17:24:00,
2013-07-30 13:29:00,77.4,61.0,30.16,North,5,9.2,9.2,57,0.00,SCT,,0.00,1027.0,WeatherDisplay:10.37,2013-07-30 17:29:00,
2013-07-30 13:34:00,77.7,60.2,30.16,WNW,302,12.7,12.7,55,0.00,SCT,,0.00,976.0,WeatherDisplay:10.37,2013-07-30 17:34:00,
2013-07-30 13:39:00,77.5,62.5,30.16,NW,310,10.4,10.4,60,0.00,SCT,,0.00,909.0,WeatherDisplay:10.37,2013-07-30 17:39:00,
2013-07-30 13:44:00,76.5,59.1,30.16,NW,315,10.0,10.0,55,0.00,SCT,,0.00,179.0,WeatherDisplay:10.37,2013-07-30 17:44:00,
2013-07-30 13:49:00,76.8,59.4,30.16,WNW,296,10.4,10.4,55,0.00,SCT,,0.00,940.0,WeatherDisplay:10.37,2013-07-30 17:49:00,
2013-07-30 13:54:00,77.1,59.7,30.16,NNW,330,8.1,8.1,55,0.00,SCT,,0.00,969.0,WeatherDisplay:10.37,2013-07-30 17:54:00,
2013-07-30 14:00:00,77.4,59.5,30.16,NW,305,6.0,6.0,54,0.00,SCT,,0.00,1007.0,WeatherDisplay:10.37,2013-07-30 18:00:00,
2013-07-30 14:05:00,77.7,59.7,30.16,WNW,290,11.5,11.5,54,0.00,SCT,,0.00,986.0,WeatherDisplay:10.37,2013-07-30 18:05:00,
2013-07-30 14:10:00,77.3,60.9,30.16,WNW,298,8.0,8.9,57,0.00,SCT,,0.00,482.0,WeatherDisplay:10.37,2013-07-30 18:10:00,
2013-07-30 14:15:00,76.7,61.8,30.16,NW,324,11.0,11.0,60,0.00,SCT,,0.00,503.0,WeatherDisplay:10.37,2013-07-30 18:15:00,
2013-07-30 14:20:00,77.6,61.2,30.16,WNW,302,10.4,10.4,57,0.00,SCT,,0.00,944.0,WeatherDisplay:10.37,2013-07-30 18:20:00,
2013-07-30 14:25:00,77.8,59.8,30.16,WNW,299,9.2,9.2,54,0.00,SCT,,0.00,162.0,WeatherDisplay:10.37,2013-07-30 18:25:00,
2013-07-30 14:30:00,76.4,60.0,30.16,NW,317,8.1,8.1,57,0.00,SCT,,0.00,911.0,WeatherDisplay:10.37,2013-07-30 18:30:00,
2013-07-30 14:35:00,77.9,61.4,30.16,West,265,6.9,6.9,57,0.00,SCT,,0.00,863.0,WeatherDisplay:10.37,2013-07-30 18:35:00,
2013-07-30 14:40:00,78.1,61.7,30.16,WNW,296,8.0,9.0,57,0.00,SCT,,0.00,863.0,WeatherDisplay:10.37,2013-07-30 18:40:00,
2013-07-30 14:45:00,77.6,59.6,30.16,NW,310,9.2,9.2,54,0.00,SCT,,0.00,802.0,WeatherDisplay:10.37,2013-07-30 18:45:00,
2013-07-30 14:50:00,77.0,60.1,30.16,NW,309,8.1,8.1,56,0.00,SCT,,0.00,202.0,WeatherDisplay:10.37,2013-07-30 18:50:00,
2013-07-30 14:55:00,77.5,62.5,30.16,NNW,331,6.9,6.9,60,0.00,SCT,,0.00,807.0,WeatherDisplay:10.37,2013-07-30 18:55:00,
2013-07-30 15:00:00,78.3,60.8,30.16,WNW,285,8.1,8.1,55,0.00,FEW,,0.00,854.0,WeatherDisplay:10.37,2013-07-30 19:00:00,
2013-07-30 15:05:00,78.3,59.2,30.15,NNW,335,6.9,6.9,52,0.00,FEW,,0.00,933.0,WeatherDisplay:10.37,2013-07-30 19:05:00,
2013-07-30 15:10:00,78.3,60.8,30.15,WNW,290,8.1,8.1,55,0.00,FEW,,0.00,204.0,WeatherDisplay:10.37,2013-07-30 19:10:00,
2013-07-30 15:15:00,76.9,59.5,30.15,WNW,303,10.4,10.4,55,0.00,FEW,,0.00,181.0,WeatherDisplay:10.37,2013-07-30 19:15:00,
2013-07-30 15:20:00,76.0,59.2,30.15,NW,309,8.1,8.1,56,0.00,FEW,,0.00,230.0,WeatherDisplay:10.37,2013-07-30 19:20:00,
2013-07-30 15:25:00,76.8,58.4,30.15,NW,305,4.6,4.6,53,0.00,FEW,,0.00,227.0,WeatherDisplay:10.37,2013-07-30 19:25:00,
2013-07-30 15:30:00,77.6,58.0,30.15,West,271,10.4,10.4,51,0.00,FEW,,0.00,171.0,WeatherDisplay:10.37,2013-07-30 19:30:00,
2013-07-30 15:35:00,77.8,60.8,30.15,West,275,6.9,6.9,56,0.00,FEW,,0.00,911.0,WeatherDisplay:10.37,2013-07-30 19:35:00,
2013-07-30 15:40:00,78.8,59.7,30.15,NW,307,6.0,6.0,52,0.00,FEW,,0.00,868.0,WeatherDisplay:10.37,2013-07-30 19:40:00,
2013-07-30 15:45:00,79.5,60.3,30.15,NW,311,9.2,9.2,52,0.00,FEW,,0.00,840.0,WeatherDisplay:10.37,2013-07-30 19:45:00,
2013-07-30 15:50:00,79.4,60.2,30.15,NW,309,11.5,11.5,52,0.00,FEW,,0.00,853.0,WeatherDisplay:10.37,2013-07-30 19:50:00,
2013-07-30 15:55:00,78.9,60.8,30.14,NW,316,11.5,11.5,54,0.00,FEW,,0.00,853.0,WeatherDisplay:10.37,2013-07-30 19:55:00,
2013-07-30 16:00:00,79.4,61.3,30.14,NNW,341,8.0,8.0,54,0.00,BKN,,0.00,860.0,WeatherDisplay:10.37,2013-07-30 20:00:00,
2013-07-30 16:05:00,79.3,59.0,30.14,NW,307,8.1,8.1,50,0.00,BKN,,0.00,780.0,WeatherDisplay:10.37,2013-07-30 20:05:00,
2013-07-30 16:10:00,79.0,60.9,30.14,WNW,302,6.0,6.0,54,0.00,BKN,,0.00,877.0,WeatherDisplay:10.37,2013-07-30 20:10:00,
2013-07-30 16:15:00,79.2,60.1,30.14,NW,306,8.1,8.1,52,0.00,BKN,,0.00,264.0,WeatherDisplay:10.37,2013-07-30 20:15:00,
2013-07-30 16:20:00,78.7,60.7,30.14,WNW,301,9.0,9.0,54,0.00,BKN,,0.00,798.0,WeatherDisplay:10.37,2013-07-30 20:20:00,
2013-07-30 16:25:00,78.4,58.8,30.14,WNW,293,6.9,6.9,51,0.00,BKN,,0.00,178.0,WeatherDisplay:10.37,2013-07-30 20:25:00,
2013-07-30 16:30:00,78.3,59.8,30.14,NNW,331,5.8,5.8,53,0.00,BKN,,0.00,772.0,WeatherDisplay:10.37,2013-07-30 20:30:00,
2013-07-30 16:35:00,79.5,60.3,30.14,WNW,295,9.0,9.0,52,0.00,BKN,,0.00,696.0,WeatherDisplay:10.37,2013-07-30 20:35:00,
2013-07-30 16:40:00,79.3,60.1,30.14,WNW,302,8.1,8.1,52,0.00,BKN,,0.00,615.0,WeatherDisplay:10.37,2013-07-30 20:40:00,
2013-07-30 16:45:00,78.6,59.5,30.14,WSW,256,4.6,4.6,52,0.00,BKN,,0.00,158.0,WeatherDisplay:10.37,2013-07-30 20:45:00,
2013-07-30 16:50:00,77.9,58.3,30.14,West,270,6.9,6.9,51,0.00,BKN,,0.00,329.0,WeatherDisplay:10.37,2013-07-30 20:50:00,
2013-07-30 16:55:00,78.1,60.1,30.14,NW,321,8.1,8.1,54,0.00,BKN,,0.00,659.0,WeatherDisplay:10.37,2013-07-30 20:55:00,
2013-07-30 17:00:00,78.7,60.1,30.14,NW,319,11.5,11.5,53,0.00,BKN,,0.00,631.0,WeatherDisplay:10.37,2013-07-30 21:00:00,
2013-07-30 17:05:00,79.2,61.1,30.14,NW,316,9.2,9.2,54,0.00,BKN,,0.00,148.0,WeatherDisplay:10.37,2013-07-30 21:05:00,
2013-07-30 17:10:00,78.5,58.9,30.14,NW,317,9.0,9.0,51,0.00,BKN,,0.00,155.0,WeatherDisplay:10.37,2013-07-30 21:10:00,
2013-07-30 17:15:00,77.5,59.0,30.14,NW,311,10.4,10.4,53,0.00,BKN,,0.00,174.0,WeatherDisplay:10.37,2013-07-30 21:15:00,
2013-07-30 17:20:00,76.8,59.4,30.14,NW,315,10.4,10.4,55,0.00,BKN,,0.00,199.0,WeatherDisplay:10.37,2013-07-30 21:20:00,
2013-07-30 17:25:00,76.7,59.3,30.14,NW,308,8.1,8.1,55,0.00,BKN,,0.00,227.0,WeatherDisplay:10.37,2013-07-30 21:25:00,
2013-07-30 17:30:00,77.2,60.8,30.14,WNW,289,4.0,4.0,57,0.00,BKN,,0.00,454.0,WeatherDisplay:10.37,2013-07-30 21:30:00,
2013-07-30 17:35:00,77.5,59.5,30.14,NW,316,8.1,8.1,54,0.00,BKN,,0.00,183.0,WeatherDisplay:10.37,2013-07-30 21:35:00,
2013-07-30 17:40:00,78.2,61.7,30.14,NW,318,6.9,6.9,57,0.00,BKN,,0.00,483.0,WeatherDisplay:10.37,2013-07-30 21:40:00,
2013-07-30 17:45:00,78.2,59.7,30.14,NW,321,7.0,7.0,53,0.00,BKN,,0.00,255.0,WeatherDisplay:10.37,2013-07-30 21:45:00,
2013-07-30 17:50:00,78.1,59.0,30.14,NW,314,7.0,7.0,52,0.00,BKN,,0.00,165.0,WeatherDisplay:10.37,2013-07-30 21:50:00,
2013-07-30 17:55:00,77.8,58.8,30.14,WNW,297,8.1,8.1,52,0.00,BKN,,0.00,185.0,WeatherDisplay:10.37,2013-07-30 21:55:00,
2013-07-30 18:00:00,77.3,59.4,30.14,NW,313,11.5,11.5,54,0.00,BKN,,0.00,155.0,WeatherDisplay:10.37,2013-07-30 22:00:00,
2013-07-30 18:05:00,77.0,60.1,30.14,NW,312,6.9,6.9,56,0.00,BKN,,0.00,371.0,WeatherDisplay:10.37,2013-07-30 22:05:00,
2013-07-30 18:10:00,77.9,61.4,30.14,WNW,297,5.8,5.8,57,0.00,BKN,,0.00,425.0,WeatherDisplay:10.37,2013-07-30 22:10:00,
2013-07-30 18:15:00,78.7,60.7,30.14,WNW,297,6.9,6.9,54,0.00,BKN,,0.00,345.0,WeatherDisplay:10.37,2013-07-30 22:15:00,
2013-07-30 18:20:00,78.6,59.5,30.14,NNW,328,9.2,9.2,52,0.00,BKN,,0.00,83.0,WeatherDisplay:10.37,2013-07-30 22:20:00,
2013-07-30 18:25:00,78.0,60.0,30.14,West,274,6.9,6.9,54,0.00,BKN,,0.00,330.0,WeatherDisplay:10.37,2013-07-30 22:25:00,
2013-07-30 18:30:00,78.0,59.5,30.14,NW,312,8.1,8.1,53,0.00,BKN,,0.00,308.0,WeatherDisplay:10.37,2013-07-30 22:30:00,
2013-07-30 18:35:00,78.1,59.6,30.14,NW,308,6.9,6.9,53,0.00,BKN,,0.00,285.0,WeatherDisplay:10.37,2013-07-30 22:35:00,
2013-07-30 18:40:00,78.2,59.7,30.14,NW,313,9.2,9.2,53,0.00,BKN,,0.00,264.0,WeatherDisplay:10.37,2013-07-30 22:40:00,
2013-07-30 18:45:00,78.3,59.2,30.14,NW,315,8.1,8.1,52,0.00,BKN,,0.00,248.0,WeatherDisplay:10.37,2013-07-30 22:45:00,
2013-07-30 18:50:00,78.4,59.3,30.14,NW,306,8.1,8.1,52,0.00,BKN,,0.00,213.0,WeatherDisplay:10.37,2013-07-30 22:50:00,
2013-07-30 18:55:00,78.3,59.8,30.14,WNW,296,6.0,6.0,53,0.00,BKN,,0.00,190.0,WeatherDisplay:10.37,2013-07-30 22:55:00,
2013-07-30 19:00:00,78.0,60.0,30.13,NW,309,9.2,9.2,54,0.00,CLR,,0.00,179.0,WeatherDisplay:10.37,2013-07-30 23:00:00,
2013-07-30 19:05:00,77.7,59.2,30.13,NW,310,6.9,6.9,53,0.00,CLR,,0.00,172.0,WeatherDisplay:10.37,2013-07-30 23:05:00,
2013-07-30 19:10:00,77.5,60.1,30.13,NNW,329,6.9,6.9,55,0.00,CLR,,0.00,141.0,WeatherDisplay:10.37,2013-07-30 23:10:00,
2013-07-30 19:15:00,76.9,60.0,30.14,WNW,301,5.8,5.8,56,0.00,CLR,,0.00,39.0,WeatherDisplay:10.37,2013-07-30 23:15:00,
2013-07-30 19:20:00,76.3,59.9,30.14,NW,323,5.8,5.8,57,0.00,CLR,,0.00,39.0,WeatherDisplay:10.37,2013-07-30 23:20:00,
2013-07-30 19:25:00,76.0,59.7,30.13,NW,315,6.0,6.0,57,0.00,CLR,,0.00,32.0,WeatherDisplay:10.37,2013-07-30 23:25:00,
2013-07-30 19:30:00,75.7,59.4,30.14,WNW,293,4.6,4.6,57,0.00,CLR,,0.00,26.0,WeatherDisplay:10.37,2013-07-30 23:30:00,
2013-07-30 19:35:00,75.4,60.1,30.13,NW,316,4.6,4.6,59,0.00,CLR,,0.00,26.0,WeatherDisplay:10.37,2013-07-30 23:35:00,
2013-07-30 19:40:00,75.1,60.3,30.13,WNW,296,4.6,4.6,60,0.00,CLR,,0.00,26.0,WeatherDisplay:10.37,2013-07-30 23:40:00,
2013-07-30 19:45:00,74.7,59.9,30.14,NW,304,4.6,4.6,60,0.00,CLR,,0.00,21.0,WeatherDisplay:10.37,2013-07-30 23:45:00,
2013-07-30 19:50:00,74.4,59.6,30.14,NW,314,4.6,4.6,60,0.00,CLR,,0.00,21.0,WeatherDisplay:10.37,2013-07-30 23:50:00,
2013-07-30 19:55:00,74.2,59.4,30.14,NW,317,4.6,4.6,60,0.00,CLR,,0.00,18.0,WeatherDisplay:10.37,2013-07-30 23:55:00,
2013-07-30 20:00:00,73.9,60.5,30.14,NW,317,3.5,3.5,63,0.00,CLR,,0.00,16.0,WeatherDisplay:10.37,2013-07-31 00:00:00,
2013-07-30 20:05:00,73.6,59.8,30.14,NW,323,3.5,3.5,62,0.00,CLR,,0.00,11.0,WeatherDisplay:10.37,2013-07-31 00:05:00,
2013-07-30 20:10:00,73.3,59.9,30.14,NW,325,2.3,2.3,63,0.00,CLR,,0.00,5.0,WeatherDisplay:10.37,2013-07-31 00:10:00,
2013-07-30 20:15:00,73.0,59.7,30.14,NW,325,2.3,2.3,63,0.00,CLR,,0.00,0.0,WeatherDisplay:10.37,2013-07-31 00:15:00,
2013-07-30 20:20:00,72.6,59.3,30.14,NW,325,2.3,2.3,63,0.00,CLR,,0.00,0.0,WeatherDisplay:10.37,2013-07-31 00:20:00,
2013-07-30 20:25:00,72.4,59.1,30.14,NW,325,0.0,0.0,63,0.00,CLR,,0.00,0.0,WeatherDisplay:10.37,2013-07-31 00:25:00,
2013-07-30 20:30:00,72.1,58.8,30.14,NW,325,1.2,1.2,63,0.00,CLR,,0.00,0.0,WeatherDisplay:10.37,2013-07-31 00:30:00,
2013-07-30 20:35:00,71.9,58.6,30.14,NW,325,0.0,0.0,63,0.00,CLR,,0.00,0.0,WeatherDisplay:10.37,2013-07-31 00:35:00,
2013-07-30 20:40:00,71.8,59.0,30.14,NW,325,0.0,0.0,64,0.00,CLR,,0.00,0.0,WeatherDisplay:10.37,2013-07-31 00:40:00,
2013-07-30 20:45:00,71.6,58.8,30.14,NW,325,0.0,0.0,64,0.00,CLR,,0.00,0.0,WeatherDisplay:10.37,2013-07-31 00:45:00,
2013-07-30 20:50:00,71.3,58.5,30.14,NW,325,0.0,0.0,64,0.00,CLR,,0.00,0.0,WeatherDisplay:10.37,2013-07-31 00:50:00,
2013-07-30 20:55:00,71.3,60.6,30.14,NW,325,1.2,1.2,69,0.00,CLR,,0.00,0.0,WeatherDisplay:10.37,2013-07-31 00:55:00,
2013-07-30 21:00:00,71.1,60.4,30.14,NW,325,0.0,0.0,69,0.00,FEW,,0.00,0.0,WeatherDisplay:10.37,2013-07-31 01:00:00,
2013-07-30 21:05:00,70.9,60.6,30.14,NW,325,0.0,0.0,70,0.00,FEW,,0.00,0.0,WeatherDisplay:10.37,2013-07-31 01:05:00,
2013-07-30 21:10:00,70.7,60.4,30.14,NW,325,0.0,0.0,70,0.00,FEW,,0.00,0.0,WeatherDisplay:10.37,2013-07-31 01:10:00,
2013-07-30 21:15:00,70.4,60.1,30.14,NW,325,0.0,0.0,70,0.00,FEW,,0.00,0.0,WeatherDisplay:10.37,2013-07-31 01:15:00,
2013-07-30 21:20:00,70.0,60.6,30.14,NW,325,0.0,0.0,72,0.00,FEW,,0.00,0.0,WeatherDisplay:10.37,2013-07-31 01:20:00,
2013-07-30 21:25:00,69.7,61.0,30.14,NW,325,0.0,0.0,74,0.00,FEW,,0.00,0.0,WeatherDisplay:10.37,2013-07-31 01:25:00,
2013-07-30 21:30:00,69.5,61.2,30.14,NW,325,0.0,0.0,75,0.00,FEW,,0.00,0.0,WeatherDisplay:10.37,2013-07-31 01:30:00,
2013-07-30 21:35:00,69.3,61.0,30.14,NW,325,0.0,0.0,75,0.00,FEW,,0.00,0.0,WeatherDisplay:10.37,2013-07-31 01:35:00,
2013-07-30 21:40:00,69.1,61.2,30.14,NW,325,0.0,0.0,76,0.00,FEW,,0.00,0.0,WeatherDisplay:10.37,2013-07-31 01:40:00,
2013-07-30 21:45:00,68.8,60.9,30.14,NW,325,0.0,0.0,76,0.00,FEW,,0.00,0.0,WeatherDisplay:10.37,2013-07-31 01:45:00,
2013-07-30 21:50:00,68.5,60.6,30.14,NW,325,0.0,0.0,76,0.00,FEW,,0.00,0.0,WeatherDisplay:10.37,2013-07-31 01:50:00,
2013-07-30 21:55:00,68.2,60.7,30.14,NW,325,0.0,0.0,77,0.00,FEW,,0.00,0.0,WeatherDisplay:10.37,2013-07-31 01:55:00,
2013-07-30 22:00:00,67.9,60.4,30.14,NW,325,0.0,0.0,77,0.00,CLR,,0.00,0.0,WeatherDisplay:10.37,2013-07-31 02:00:00,
2013-07-30 22:05:00,67.8,60.3,30.14,NW,325,0.0,0.0,77,0.00,CLR,,0.00,0.0,WeatherDisplay:10.37,2013-07-31 02:05:00,
2013-07-30 22:10:00,67.7,60.6,30.14,North,355,1.2,1.2,78,0.00,CLR,,0.00,0.0,WeatherDisplay:10.37,2013-07-31 02:10:00,
2013-07-30 22:15:00,67.6,60.5,30.14,North,355,1.2,0.0,78,0.00,CLR,,0.00,0.0,WeatherDisplay:10.37,2013-07-31 02:15:00,
2013-07-30 22:20:00,67.5,60.4,30.14,North,355,0.0,0.0,78,0.00,CLR,,0.00,0.0,WeatherDisplay:10.37,2013-07-31 02:20:00,
2013-07-30 22:25:00,67.3,60.2,30.14,North,355,0.0,0.0,78,0.00,CLR,,0.00,0.0,WeatherDisplay:10.37,2013-07-31 02:25:00,
2013-07-30 22:30:00,67.1,60.0,30.14,North,355,0.0,0.0,78,0.00,CLR,,0.00,0.0,WeatherDisplay:10.37,2013-07-31 02:30:00,
2013-07-30 22:35:00,66.8,59.7,30.14,North,355,0.0,0.0,78,0.00,CLR,,0.00,0.0,WeatherDisplay:10.37,2013-07-31 02:35:00,
2013-07-30 22:40:00,66.6,59.5,30.14,North,355,0.0,0.0,78,0.00,CLR,,0.00,0.0,WeatherDisplay:10.37,2013-07-31 02:40:00,
2013-07-30 22:45:00,66.5,59.8,30.14,North,355,0.0,0.0,79,0.00,CLR,,0.00,0.0,WeatherDisplay:10.37,2013-07-31 02:45:00,
2013-07-30 22:50:00,66.4,59.7,30.14,North,355,0.0,0.0,79,0.00,CLR,,0.00,0.0,WeatherDisplay:10.37,2013-07-31 02:50:00,
2013-07-30 22:55:00,66.3,59.6,30.14,North,355,0.0,0.0,79,0.00,CLR,,0.00,0.0,WeatherDisplay:10.37,2013-07-31 02:55:00,
2013-07-30 23:00:00,66.1,59.7,30.14,North,355,0.0,0.0,80,0.00,CLR,,0.00,0.0,WeatherDisplay:10.37,2013-07-31 03:00:00,
2013-07-30 23:05:00,65.9,59.6,30.14,North,355,1.0,0.0,80,0.00,CLR,,0.00,0.0,WeatherDisplay:10.37,2013-07-31 03:05:00,
2013-07-30 23:10:00,65.7,59.7,30.14,North,355,1.2,1.2,81,0.00,CLR,,0.00,0.0,WeatherDisplay:10.37,2013-07-31 03:10:00,
2013-07-30 23:15:00,65.6,59.6,30.14,North,355,1.2,1.2,81,0.00,CLR,,0.00,0.0,WeatherDisplay:10.37,2013-07-31 03:15:00,
2013-07-30 23:20:00,65.4,59.4,30.14,North,355,0.0,0.0,81,0.00,CLR,,0.00,0.0,WeatherDisplay:10.37,2013-07-31 03:20:00,
2013-07-30 23:25:00,65.2,59.2,30.13,North,355,0.0,0.0,81,0.00,CLR,,0.00,0.0,WeatherDisplay:10.37,2013-07-31 03:25:00,
2013-07-30 23:30:00,64.9,58.9,30.13,North,355,0.0,0.0,81,0.00,CLR,,0.00,0.0,WeatherDisplay:10.37,2013-07-31 03:30:00,
2013-07-30 23:35:00,64.8,59.2,30.13,North,355,0.0,0.0,82,0.00,CLR,,0.00,0.0,WeatherDisplay:10.37,2013-07-31 03:35:00,
2013-07-30 23:40:00,64.7,59.1,30.14,North,355,0.0,0.0,82,0.00,CLR,,0.00,0.0,WeatherDisplay:10.37,2013-07-31 03:40:00,
2013-07-30 23:45:00,64.6,59.0,30.14,North,355,0.0,0.0,82,0.00,CLR,,0.00,0.0,WeatherDisplay:10.37,2013-07-31 03:45:00,
2013-07-30 23:50:00,64.4,58.8,30.14,North,355,0.0,0.0,82,0.00,CLR,,0.00,0.0,WeatherDisplay:10.37,2013-07-31 03:50:00,
2013-07-30 23:55:00,64.3,59.0,30.14,North,355,0.0,0.0,83,0.00,CLR,,0.00,0.0,WeatherDisplay:10.37,2013-07-31 03:55:00,